Flag for Ethiopia Weather past 2 weeks in Addis Ababa, Ethiopia

Now
63 °F

Passing clouds.


Feels Like: 63 °F
Forecast: 52 / 62 °F
Wind: 12 mph from Southwest

Location: Addis Ababa Airport

Current Time: Jul 31, 2014 at 6:05:06 PM

Latest Report: Jul 31, 2014 at 5:00 PM


Visibility: N/A

Pressure: 30.30 "Hg

Humidity: 73%

Dew point: 54 °F

Location of Addis AbabaLocation

Historic Weather in Addis Ababa — Graph

°F

Addis Ababa temperature yesterday

Maximum temperature yesterday: 68 °F (at 3:00 PM)
Minimum temperature yesterday: 57 °F (at 2:00 AM)
Average temperature yesterday: 61 °F

Past Weeks' High & Low Weather Summary

 TemperatureHumidityPressure
High75 °F (Jul 23, 5:00 PM)100% (Jul 18, 7:00 AM)30.48 "Hg (Jul 18, 7:00 AM)
Low54 °F (Jul 20, 9:00 AM)49% (Jul 23, 1:00 PM)30.24 "Hg (Jul 23, 4:00 PM)
Average61 °F79%30.35 "Hg
* Reported Jul 17 2:00 PM — Jul 31 5:00 PM, Addis Ababa, Weather by CustomWeather, © 2014

Note: Actual official high and low records may vary slightly from our data, if they occured in-between our weather recording intervals... More about our weather records

Advertising

Addis Ababa weather history for previous 24 hours

 ConditionsComfort  
Time TempWeatherWind HumidityBarometerVisibility
5:00 PM
Jul 31
63 °FPassing clouds.12 mph73%30.30 "HgN/A
4:00 PM66 °FPassing clouds.9 mph60%30.30 "HgN/A
3:00 PM66 °FPassing clouds.9 mph60%30.33 "HgN/A
2:00 PM66 °FPartly sunny.7 mph68%30.33 "HgN/A
1:00 PM64 °FFog.9 mph78%30.36 "Hg6 mi
12:00 PM63 °FFog.7 mph83%30.39 "Hg6 mi
11:00 AM63 °FPartly sunny.9 mph83%30.42 "HgN/A
10:00 AM63 °FPartly sunny.7 mph83%30.42 "HgN/A
9:00 AM59 °FCool.5 mph88%30.42 "Hg6 mi
8:00 AM59 °FPartly sunny.2 mph82%30.39 "HgN/A
7:00 AM57 °FPartly sunny.5 mph82%30.39 "HgN/A
6:00 AM59 °FPassing clouds.2 mph88%30.36 "HgN/A
5:00 AM59 °FPassing clouds.2 mph88%30.36 "HgN/A
4:00 AM59 °FPassing clouds.2 mph88%30.33 "HgN/A
3:00 AM59 °FPartly cloudy.2 mph88%30.36 "HgN/A
2:00 AM59 °FPartly cloudy.5 mph88%30.36 "HgN/A
12:00 AM59 °FPassing clouds.5 mph88%30.39 "HgN/A
11:00 PM
Jul 30
61 °FPartly cloudy.5 mph83%30.39 "HgN/A
10:00 PM61 °FPartly cloudy.5 mph88%30.36 "HgN/A
9:00 PM61 °FPartly cloudy.2 mph88%30.36 "HgN/A
8:00 PM63 °FPartly cloudy.7 mph83%30.33 "HgN/A
7:00 PM64 °FPassing clouds.12 mph78%30.30 "HgN/A
6:00 PM64 °FPartly sunny.12 mph83%30.30 "HgN/A
Weather by CustomWeather, © 2014

See weather overviewHow to use our weather pages